Home   Weather   Fort Simpson   Past weeks

Flag for Canada Past Weather in Fort Simpson, Northwest Territories, Canada — Yesterday and Last 2 Weeks

Now
34 °F

Broken clouds.


Feels Like: 25 °F
Forecast: 28 / 46 °F
Wind: 12 mph from North

Location: Fort Simpson

Current Time: Apr 30, 2017 at 9:07:51 am

Latest Report: Apr 30, 2017 at 8:00 am


Visibility: 15 mi

Pressure: 30.02 "Hg

Humidity: 75%

Dew Point: 27 °F

Location of Fort SimpsonLocation

Past Weather in Fort Simpson — Graph

°F

Fort Simpson Temperature Yesterday

Maximum temperature yesterday: 50 °F (at 4:00 pm)
Minimum temperature yesterday: 30 °F (at 6:00 am)
Average temperature yesterday: 41 °F

High & Low Weather Summary for the Past Weeks

 TemperatureHumidityPressure
High57 °F (Apr 28, 5:00 pm)86% (Apr 15, 11:00 pm)30.79 "Hg (Apr 15, 11:00 pm)
Low-6 °F (Apr 18, 7:00 am)26% (Apr 24, 4:00 pm)29.64 "Hg (Apr 26, 7:00 pm)
Average28 °F52%30.16 "Hg
* Reported Apr 15 8:00 am — Apr 30 8:00 am, Fort Simpson, Weather by CustomWeather, © 2017

Note: Actual official high and low records may vary slightly from our data, if they occured in-between our weather recording intervals... More about our weather records

Advertising

Fort Simpson Weather History for the Previous 24 Hours

Scroll right to see more
 ConditionsComfort  
Time TempWeatherWind HumidityBarometerVisibility
8:00 am
Sun, Apr 30
34 °FBroken clouds.12 mph75%30.02 "Hg15 mi
7:00 am30 °FBroken clouds.10 mph80%30.01 "Hg15 mi
6:00 am30 °FBroken clouds.12 mph80%30.00 "Hg15 mi
5:00 am30 °FPassing clouds.10 mph86%29.99 "Hg15 mi
4:00 am32 °FPassing clouds.12 mph80%29.98 "Hg15 mi
3:00 am32 °FPartly cloudy.10 mph80%29.98 "Hg15 mi
2:00 am34 °FPartly cloudy.10 mph75%29.97 "Hg15 mi
1:00 am36 °FPartly cloudy.12 mph70%29.96 "Hg15 mi
12:00 am36 °FPartly cloudy.13 mph70%29.95 "Hg15 mi
11:00 pm
Sat, Apr 29
37 °FPartly cloudy.13 mph65%29.94 "Hg15 mi
10:00 pm39 °FPartly sunny.14 mph61%29.93 "Hg15 mi
9:00 pm43 °FPartly sunny.14 mph53%29.93 "Hg15 mi
8:00 pm45 °FScattered clouds.14 mph49%29.93 "Hg15 mi
7:00 pm48 °FScattered clouds.17 mph46%29.93 "Hg15 mi
6:00 pm50 °FScattered clouds.14 mph40%29.94 "Hg15 mi
5:00 pm50 °FPassing clouds.15 mph40%29.94 "Hg15 mi
4:00 pm50 °FPassing clouds.15 mph40%29.96 "Hg15 mi
3:00 pm48 °FPartly sunny.15 mph43%29.97 "Hg15 mi
2:00 pm48 °FPartly sunny.12 mph43%29.99 "Hg15 mi
1:00 pm46 °FPartly sunny.14 mph46%30.00 "Hg15 mi
12:00 pm45 °FPartly sunny.9 mph49%30.01 "Hg15 mi
11:00 am43 °FPartly sunny.12 mph53%30.02 "Hg15 mi
10:00 am39 °FScattered clouds.10 mph61%30.03 "Hg15 mi
9:00 am37 °FScattered clouds.12 mph65%30.03 "Hg15 mi
Weather by CustomWeather, © 2017

See weather overviewHow to use our weather pages